Location: Bronnegerveen
(52.9548°N, 6.8388°E)
Time: 01:36:28
(UTC+00:00)

Cosmos 676 Rocket - Pass Details

Date: 15 June 2025
Orbit: 751 x 779 km, 74.0° (Epoch: 07 July)

Event Time Altitude Azimuth Distance (km) Brightness Sun altitude
Exits shadow 00:24:48 14° 221° (SW) 2,027 5.7 -12.9°
Maximum altitude 00:29:14 61° 300° (WNW) 875 4.4 -12.8°
Drops below altitude 10° 00:34:26 10° 21° (NNE) 2,312 8.0 -12.6°
Sets 00:36:51 0° 25° (NNE) 3,237 9.1 -12.5°
